| time (UTC) | temp C | wind direction | speed KPH | gust KPH | rain 1hr cm | rain 24hr cm | rain mn cm | humidity % | barometer mb |
| 20260509102407 | 13 | 0 | 0.0 | 0.0 | 0.00 | 0.00 | 0.00 | 69 | 1024.6 |
| 20260509101807 | 13 | 0 | 0.0 | 0.0 | 0.00 | 0.00 | 0.00 | 68 | 1024.5 |
| 20260509101207 | 13 | 0 | 0.0 | 0.0 | 0.00 | 0.00 | 0.00 | 68 | 1024.5 |
| 20260509100606 | 13 | 0 | 0.0 | 0.0 | 0.00 | 0.00 | 0.00 | 67 | 1024.4 |
| 20260509100007 | 14 | 0 | 0.0 | 0.0 | 0.00 | 0.00 | 0.00 | 67 | 1024.3 |
| 20260509095407 | 14 | 0 | 0.0 | 0.0 | 0.00 | 0.00 | 0.00 | 66 | 1024.3 |
| 20260509094806 | 14 | 0 | 0.0 | 0.0 | 0.00 | 0.00 | 0.00 | 66 | 1024.3 |
| 20260509094206 | 15 | 0 | 0.0 | 0.0 | 0.00 | 0.00 | 0.00 | 66 | 1024.3 |
| 20260509093606 | 15 | 0 | 0.0 | 0.0 | 0.00 | 0.00 | 0.00 | 65 | 1024.2 |
| 20260509093006 | 15 | 0 | 0.0 | 0.0 | 0.00 | 0.00 | 0.00 | 65 | 1024.1 |
| 20260509092407 | 15 | 0 | 0.0 | 0.0 | 0.00 | 0.00 | 0.00 | 64 | 1024.1 |
| 20260509091207 | 15 | 0 | 0.0 | 0.0 | 0.00 | 0.00 | 0.00 | 63 | 1023.9 |
| 20260509090606 | 16 | 0 | 0.0 | 0.0 | 0.00 | 0.00 | 0.00 | 63 | 1023.8 |
| 20260509090006 | 16 | 0 | 0.0 | 0.0 | 0.00 | 0.00 | 0.00 | 62 | 1023.7 |
| 20260509085407 | 16 | 0 | 0.0 | 0.0 | 0.00 | 0.00 | 0.00 | 62 | 1023.6 |
| 20260509084806 | 16 | 0 | 0.0 | 0.0 | 0.00 | 0.00 | 0.00 | 62 | 1023.5 |
| 20260509084206 | 16 | 0 | 0.0 | 0.0 | 0.00 | 0.00 | 0.00 | 61 | 1023.4 |
| 20260509083606 | 16 | 0 | 0.0 | 0.0 | 0.00 | 0.00 | 0.00 | 60 | 1023.3 |
| 20260509083007 | 17 | 0 | 0.0 | 0.0 | 0.00 | 0.00 | 0.00 | 60 | 1023.3 |
| 20260509082406 | 17 | 0 | 0.0 | 0.0 | 0.00 | 0.00 | 0.00 | 59 | 1023.2 |
| 20260509081206 | 17 | 0 | 0.0 | 0.0 | 0.00 | 0.00 | 0.00 | 58 | 1023.0 |
| 20260509080606 | 17 | 0 | 0.0 | 0.0 | 0.00 | 0.00 | 0.00 | 58 | 1022.9 |
| 20260509080007 | 17 | 112 | 0.0 | 4.8 | 0.00 | 0.00 | 0.00 | 57 | 1022.8 |
| 20260509075407 | 18 | 118 | 1.6 | 4.8 | 0.00 | 0.00 | 0.00 | 57 | 1022.7 |
| 20260509074806 | 18 | 119 | 3.2 | 14.5 | 0.00 | 0.00 | 0.00 | 57 | 1022.5 |
| 20260509074207 | 18 | 125 | 4.8 | 14.5 | 0.00 | 0.00 | 0.00 | 56 | 1022.4 |
| 20260509073607 | 18 | 125 | 3.2 | 8.0 | 0.00 | 0.00 | 0.00 | 56 | 1022.3 |
| 20260509073006 | 18 | 117 | 3.2 | 8.0 | 0.00 | 0.00 | 0.00 | 55 | 1022.2 |
| 20260509072407 | 18 | 121 | 4.8 | 9.7 | 0.00 | 0.00 | 0.00 | 55 | 1022.2 |
| 20260509071807 | 19 | 125 | 6.4 | 9.7 | 0.00 | 0.00 | 0.00 | 54 | 1022.0 |
| 20260509071207 | 19 | 123 | 6.4 | 16.1 | 0.00 | 0.00 | 0.00 | 54 | 1022.0 |
| 20260509070607 | 20 | 118 | 6.4 | 16.1 | 0.00 | 0.00 | 0.00 | 53 | 1021.9 |
| 20260509070006 | 20 | 119 | 6.4 | 14.5 | 0.00 | 0.00 | 0.00 | 53 | 1021.9 |
| 20260509064806 | 20 | 122 | 4.8 | 14.5 | 0.00 | 0.00 | 0.00 | 51 | 1021.7 |
| 20260509064207 | 21 | 122 | 4.8 | 9.7 | 0.00 | 0.00 | 0.00 | 51 | 1021.7 |
| 20260509063607 | 21 | 122 | 3.2 | 9.7 | 0.00 | 0.00 | 0.00 | 49 | 1021.6 |
| 20260509062407 | 22 | 98 | 0.0 | 1.6 | 0.00 | 0.00 | 0.00 | 45 | 1021.5 |
| 20260509061207 | 22 | 0 | 0.0 | 0.0 | 0.00 | 0.00 | 0.00 | 45 | 1021.3 |
| 20260509060607 | 22 | 0 | 0.0 | 0.0 | 0.00 | 0.00 | 0.00 | 44 | 1021.2 |
| 20260509060006 | 22 | 0 | 0.0 | 0.0 | 0.00 | 0.00 | 0.00 | 44 | 1021.2 |
| 20260509055407 | 22 | 0 | 0.0 | 0.0 | 0.00 | 0.00 | 0.00 | 45 | 1021.1 |
| 20260509054806 | 22 | 84 | 0.0 | 1.6 | 0.00 | 0.00 | 0.00 | 45 | 1021.1 |
| 20260509054206 | 22 | 104 | 1.6 | 4.8 | 0.00 | 0.00 | 0.00 | 44 | 1021.1 |
| 20260509053006 | 22 | 100 | 0.0 | 8.0 | 0.00 | 0.00 | 0.00 | 44 | 1021.0 |
| 20260509052407 | 22 | 63 | 1.6 | 4.8 | 0.00 | 0.00 | 0.00 | 43 | 1021.0 |
| 20260509051807 | 22 | 123 | 1.6 | 6.4 | 0.00 | 0.00 | 0.00 | 43 | 1021.0 |
| 20260509051206 | 23 | 151 | 1.6 | 8.0 | 0.00 | 0.00 | 0.00 | 42 | 1021.0 |
| 20260509050606 | 23 | 161 | 1.6 | 8.0 | 0.00 | 0.00 | 0.00 | 43 | 1021.0 |
| 20260509050006 | 23 | 252 | 0.0 | 6.4 | 0.00 | 0.00 | 0.00 | 42 | 1021.0 |
| 20260509045406 | 23 | 229 | 0.0 | 4.8 | 0.00 | 0.00 | 0.00 | 42 | 1021.0 |
| 20260509044206 | 23 | 131 | 1.6 | 4.8 | 0.00 | 0.00 | 0.00 | 43 | 1021.0 |
| 20260509043606 | 23 | 117 | 1.6 | 6.4 | 0.00 | 0.00 | 0.00 | 44 | 1021.0 |
| 20260509043007 | 22 | 118 | 0.0 | 6.4 | 0.00 | 0.00 | 0.00 | 44 | 1021.0 |
| 20260509041806 | 22 | 21 | 0.0 | 1.6 | 0.00 | 0.00 | 0.00 | 45 | 1021.0 |
| 20260509041206 | 22 | 255 | 0.0 | 4.8 | 0.00 | 0.00 | 0.00 | 45 | 1021.0 |
| 20260509040606 | 22 | 247 | 1.6 | 4.8 | 0.00 | 0.00 | 0.00 | 45 | 1021.0 |
| 20260509040007 | 22 | 184 | 1.6 | 6.4 | 0.00 | 0.00 | 0.00 | 45 | 1021.1 |
| 20260509035406 | 22 | 206 | 1.6 | 4.8 | 0.00 | 0.00 | 0.00 | 45 | 1021.1 |
| 20260509034807 | 22 | 172 | 1.6 | 6.4 | 0.00 | 0.00 | 0.00 | 45 | 1021.1 |
| 20260509034207 | 22 | 102 | 1.6 | 9.7 | 0.00 | 0.00 | 0.00 | 45 | 1021.1 |
| 20260509033606 | 22 | 100 | 1.6 | 9.7 | 0.00 | 0.00 | 0.00 | 45 | 1021.1 |
| 20260509033007 | 21 | 157 | 1.6 | 8.0 | 0.00 | 0.00 | 0.00 | 45 | 1021.2 |
| 20260509032406 | 21 | 162 | 1.6 | 8.0 | 0.00 | 0.00 | 0.00 | 45 | 1021.2 |
| 20260509031806 | 21 | 149 | 0.0 | 6.4 | 0.00 | 0.00 | 0.00 | 45 | 1021.3 |
| 20260509031205 | 21 | 145 | 0.0 | 6.4 | 0.00 | 0.00 | 0.00 | 45 | 1021.4 |
| 20260509030606 | 21 | 139 | 1.6 | 6.4 | 0.00 | 0.00 | 0.00 | 46 | 1021.4 |
| 20260509025406 | 21 | 154 | 3.2 | 9.7 | 0.00 | 0.00 | 0.00 | 45 | 1021.6 |
| 20260509024806 | 21 | 167 | 1.6 | 9.7 | 0.00 | 0.00 | 0.00 | 45 | 1021.7 |
| 20260509024206 | 21 | 177 | 1.6 | 8.0 | 0.00 | 0.00 | 0.00 | 46 | 1021.8 |
| 20260509023007 | 21 | 143 | 1.6 | 12.9 | 0.00 | 0.00 | 0.00 | 46 | 1022.0 |
| 20260509021806 | 21 | 132 | 1.6 | 8.0 | 0.00 | 0.00 | 0.00 | 48 | 1022.2 |
| 20260509021206 | 20 | 165 | 1.6 | 8.0 | 0.00 | 0.00 | 0.00 | 49 | 1022.3 |
| 20260509020607 | 20 | 296 | 1.6 | 8.0 | 0.00 | 0.00 | 0.00 | 49 | 1022.4 |
| 20260509020006 | 20 | 238 | 1.6 | 4.8 | 0.00 | 0.00 | 0.00 | 49 | 1022.5 |
| 20260509015407 | 20 | 246 | 1.6 | 8.0 | 0.00 | 0.00 | 0.00 | 50 | 1022.6 |
| 20260509014806 | 20 | 289 | 0.0 | 8.0 | 0.00 | 0.00 | 0.00 | 50 | 1022.7 |
| 20260509014207 | 20 | 201 | 0.0 | 4.8 | 0.00 | 0.00 | 0.00 | 51 | 1022.7 |
| 20260509013606 | 19 | 218 | 1.6 | 6.4 | 0.00 | 0.00 | 0.00 | 53 | 1022.8 |
| 20260509013007 | 19 | 156 | 1.6 | 6.4 | 0.00 | 0.00 | 0.00 | 53 | 1022.8 |
| 20260509012406 | 19 | 123 | 1.6 | 6.4 | 0.00 | 0.00 | 0.00 | 54 | 1022.9 |
| 20260509011807 | 19 | 103 | 1.6 | 6.4 | 0.00 | 0.00 | 0.00 | 55 | 1022.9 |
| 20260509011207 | 18 | 91 | 1.6 | 6.4 | 0.00 | 0.00 | 0.00 | 56 | 1023.0 |
| 20260509010606 | 18 | 5 | 1.6 | 8.0 | 0.00 | 0.00 | 0.00 | 56 | 1023.0 |
| 20260509010006 | 18 | 293 | 0.0 | 8.0 | 0.00 | 0.00 | 0.00 | 56 | 1023.1 |
| 20260509005407 | 18 | 264 | 0.0 | 4.8 | 0.00 | 0.00 | 0.00 | 57 | 1023.3 |
| 20260509004806 | 17 | 235 | 0.0 | 1.6 | 0.00 | 0.00 | 0.00 | 58 | 1023.4 |
| 20260509004207 | 17 | 275 | 0.0 | 4.8 | 0.00 | 0.00 | 0.00 | 59 | 1023.4 |
| 20260509003007 | 16 | 0 | 0.0 | 0.0 | 0.00 | 0.00 | 0.00 | 62 | 1023.5 |
| 20260509001806 | 16 | 347 | 1.6 | 6.4 | 0.00 | 0.00 | 0.00 | 63 | 1023.6 |
| 20260509001206 | 16 | 344 | 0.0 | 6.4 | 0.00 | 0.00 | 0.00 | 65 | 1023.6 |
| 20260509000606 | 15 | 103 | 0.0 | 6.4 | 0.00 | 0.00 | 0.00 | 67 | 1023.6 |
| 20260509000007 | 15 | 101 | 1.6 | 6.4 | 0.00 | 0.00 | 0.00 | 68 | 1023.7 |
| 20260508234806 | 14 | 47 | 0.0 | 4.8 | 0.00 | 0.00 | 0.00 | 72 | 1023.8 |
| 20260508234206 | 13 | 293 | 0.0 | 1.6 | 0.00 | 0.00 | 0.00 | 73 | 1023.7 |
| 20260508233607 | 13 | 298 | 0.0 | 4.8 | 0.00 | 0.00 | 0.00 | 74 | 1023.7 |
| 20260508231806 | 12 | 0 | 0.0 | 0.0 | 0.00 | 0.00 | 0.00 | 78 | 1023.8 |
| 20260508231206 | 11 | 0 | 0.0 | 0.0 | 0.00 | 0.00 | 0.00 | 79 | 1023.8 |
| 20260508230007 | 11 | 0 | 0.0 | 0.0 | 0.00 | 0.00 | 0.00 | 80 | 1023.7 |
| 20260508224206 | 10 | 0 | 0.0 | 0.0 | 0.00 | 0.00 | 0.00 | 82 | 1023.7 |
| 20260508223006 | 8 | 0 | 0.0 | 0.0 | 0.00 | 0.00 | 0.00 | 82 | 1023.7 |
| 20260508222406 | 8 | 0 | 0.0 | 0.0 | 0.00 | 0.00 | 0.00 | 82 | 1023.7 |
| 20260508221805 | 8 | 0 | 0.0 | 0.0 | 0.00 | 0.00 | 0.00 | 82 | 1023.6 |
| 20260508221206 | 7 | 0 | 0.0 | 0.0 | 0.00 | 0.00 | 0.00 | 82 | 1023.6 |
| 20260508220606 | 7 | 0 | 0.0 | 0.0 | 0.00 | 0.00 | 0.00 | 82 | 1023.5 |
| 20260508215406 | 7 | 0 | 0.0 | 0.0 | 0.00 | 0.00 | 0.00 | 82 | 1023.6 |
| 20260508214806 | 6 | 0 | 0.0 | 0.0 | 0.00 | 0.00 | 0.00 | 81 | 1023.5 |
| 20260508214206 | 6 | 0 | 0.0 | 0.0 | 0.00 | 0.00 | 0.00 | 81 | 1023.4 |
| 20260508213005 | 6 | 0 | 0.0 | 0.0 | 0.00 | 0.00 | 0.00 | 81 | 1023.2 |
| 20260508212406 | 6 | 0 | 0.0 | 0.0 | 0.00 | 0.00 | 0.00 | 81 | 1023.1 |
| 20260508211806 | 6 | 0 | 0.0 | 0.0 | 0.00 | 0.00 | 0.00 | 80 | 1023.1 |
| 20260508211206 | 5 | 0 | 0.0 | 0.0 | 0.00 | 0.00 | 0.00 | 80 | 1023.0 |
| 20260508210607 | 5 | 0 | 0.0 | 0.0 | 0.00 | 0.00 | 0.00 | 80 | 1022.9 |
| 20260508210006 | 5 | 0 | 0.0 | 0.0 | 0.00 | 0.00 | 0.00 | 80 | 1022.9 |
| 20260508205405 | 5 | 0 | 0.0 | 0.0 | 0.00 | 0.00 | 0.00 | 80 | 1022.8 |
| 20260508204806 | 5 | 0 | 0.0 | 0.0 | 0.00 | 0.00 | 0.00 | 80 | 1022.7 |
| 20260508204206 | 5 | 0 | 0.0 | 0.0 | 0.00 | 0.00 | 0.00 | 80 | 1022.6 |
| 20260508203007 | 6 | 0 | 0.0 | 0.0 | 0.00 | 0.00 | 0.00 | 80 | 1022.4 |
| 20260508201806 | 6 | 0 | 0.0 | 0.0 | 0.00 | 0.00 | 0.00 | 79 | 1022.4 |
| 20260508201207 | 6 | 0 | 0.0 | 0.0 | 0.00 | 0.00 | 0.00 | 79 | 1022.3 |
| 20260508200606 | 6 | 0 | 0.0 | 0.0 | 0.00 | 0.00 | 0.00 | 79 | 1022.3 |
| 20260508200007 | 6 | 0 | 0.0 | 0.0 | 0.00 | 0.00 | 0.00 | 79 | 1022.2 |
| 20260508194806 | 6 | 0 | 0.0 | 0.0 | 0.00 | 0.00 | 0.00 | 79 | 1022.1 |
| 20260508194206 | 6 | 0 | 0.0 | 0.0 | 0.00 | 0.00 | 0.00 | 79 | 1022.0 |
| 20260508193605 | 6 | 0 | 0.0 | 0.0 | 0.00 | 0.00 | 0.00 | 79 | 1021.9 |
| 20260508193006 | 6 | 0 | 0.0 | 0.0 | 0.00 | 0.00 | 0.00 | 79 | 1021.7 |
| 20260508192407 | 6 | 0 | 0.0 | 0.0 | 0.00 | 0.00 | 0.00 | 79 | 1021.6 |
| 20260508191806 | 6 | 0 | 0.0 | 0.0 | 0.00 | 0.00 | 0.00 | 79 | 1021.7 |
| 20260508191206 | 6 | 0 | 0.0 | 0.0 | 0.00 | 0.00 | 0.00 | 79 | 1021.7 |
| 20260508185407 | 6 | 0 | 0.0 | 0.0 | 0.00 | 0.00 | 0.00 | 79 | 1021.5 |
| 20260508184806 | 6 | 0 | 0.0 | 0.0 | 0.00 | 0.00 | 0.00 | 79 | 1021.4 |
| 20260508184206 | 6 | 0 | 0.0 | 0.0 | 0.00 | 0.00 | 0.00 | 79 | 1021.2 |
| 20260508183606 | 6 | 0 | 0.0 | 0.0 | 0.00 | 0.00 | 0.00 | 79 | 1021.2 |
| 20260508183006 | 6 | 0 | 0.0 | 0.0 | 0.00 | 0.00 | 0.00 | 79 | 1021.2 |
| 20260508182406 | 6 | 0 | 0.0 | 0.0 | 0.00 | 0.00 | 0.00 | 79 | 1021.1 |
| 20260508181806 | 6 | 0 | 0.0 | 0.0 | 0.00 | 0.00 | 0.00 | 79 | 1021.1 |
| 20260508181205 | 6 | 0 | 0.0 | 0.0 | 0.00 | 0.00 | 0.00 | 79 | 1021.1 |
| 20260508180006 | 6 | 0 | 0.0 | 0.0 | 0.00 | 0.00 | 0.00 | 79 | 1020.9 |
| 20260508175406 | 6 | 0 | 0.0 | 0.0 | 0.00 | 0.00 | 0.00 | 79 | 1020.9 |
| 20260508174806 | 6 | 0 | 0.0 | 0.0 | 0.00 | 0.00 | 0.00 | 79 | 1020.8 |
| 20260508174206 | 6 | 0 | 0.0 | 0.0 | 0.00 | 0.00 | 0.00 | 78 | 1020.8 |
| 20260508173606 | 6 | 0 | 0.0 | 0.0 | 0.00 | 0.00 | 0.00 | 78 | 1020.9 |
| 20260508173006 | 7 | 0 | 0.0 | 0.0 | 0.00 | 0.00 | 0.00 | 78 | 1020.8 |
| 20260508172406 | 7 | 0 | 0.0 | 0.0 | 0.00 | 0.00 | 0.00 | 78 | 1020.8 |
| 20260508171806 | 7 | 0 | 0.0 | 0.0 | 0.00 | 0.00 | 0.00 | 78 | 1020.8 |
| 20260508171206 | 7 | 0 | 0.0 | 0.0 | 0.00 | 0.00 | 0.00 | 78 | 1020.8 |
| 20260508170605 | 7 | 0 | 0.0 | 0.0 | 0.00 | 0.00 | 0.00 | 78 | 1020.8 |
| 20260508170006 | 7 | 0 | 0.0 | 0.0 | 0.00 | 0.00 | 0.00 | 78 | 1020.8 |
| 20260508165406 | 7 | 0 | 0.0 | 0.0 | 0.00 | 0.00 | 0.00 | 78 | 1020.9 |
| 20260508164206 | 7 | 0 | 0.0 | 0.0 | 0.00 | 0.00 | 0.00 | 78 | 1020.9 |
| 20260508163606 | 7 | 0 | 0.0 | 0.0 | 0.00 | 0.00 | 0.00 | 78 | 1020.9 |
| 20260508163006 | 7 | 0 | 0.0 | 0.0 | 0.00 | 0.00 | 0.00 | 78 | 1020.8 |
| 20260508162406 | 7 | 0 | 0.0 | 0.0 | 0.00 | 0.00 | 0.00 | 78 | 1020.8 |
| 20260508161807 | 7 | 0 | 0.0 | 0.0 | 0.00 | 0.00 | 0.00 | 78 | 1020.7 |
| 20260508161206 | 7 | 0 | 0.0 | 0.0 | 0.00 | 0.00 | 0.00 | 77 | 1020.8 |
| 20260508160606 | 7 | 0 | 0.0 | 0.0 | 0.00 | 0.00 | 0.00 | 78 | 1020.7 |
| 20260508160006 | 7 | 0 | 0.0 | 0.0 | 0.00 | 0.00 | 0.00 | 77 | 1020.6 |
| 20260508155406 | 7 | 0 | 0.0 | 0.0 | 0.00 | 0.00 | 0.00 | 77 | 1020.6 |
| 20260508154806 | 7 | 0 | 0.0 | 0.0 | 0.00 | 0.00 | 0.00 | 77 | 1020.6 |
| 20260508153606 | 7 | 0 | 0.0 | 0.0 | 0.00 | 0.00 | 0.00 | 77 | 1020.6 |
| 20260508153006 | 8 | 0 | 0.0 | 0.0 | 0.00 | 0.00 | 0.00 | 76 | 1020.6 |
| 20260508152406 | 8 | 0 | 0.0 | 0.0 | 0.00 | 0.00 | 0.00 | 76 | 1020.5 |
| 20260508151206 | 8 | 0 | 0.0 | 0.0 | 0.00 | 0.00 | 0.00 | 76 | 1020.7 |
| 20260508150606 | 8 | 0 | 0.0 | 0.0 | 0.00 | 0.00 | 0.00 | 76 | 1020.8 |
| 20260508150006 | 8 | 0 | 0.0 | 0.0 | 0.00 | 0.00 | 0.00 | 76 | 1020.7 |
| 20260508144805 | 8 | 0 | 0.0 | 0.0 | 0.00 | 0.00 | 0.00 | 76 | 1020.7 |
| 20260508144206 | 8 | 0 | 0.0 | 0.0 | 0.00 | 0.00 | 0.00 | 76 | 1020.7 |
| 20260508143606 | 8 | 0 | 0.0 | 0.0 | 0.00 | 0.00 | 0.00 | 75 | 1020.6 |
| 20260508143006 | 8 | 0 | 0.0 | 0.0 | 0.00 | 0.00 | 0.00 | 75 | 1020.6 |
| 20260508142405 | 8 | 0 | 0.0 | 0.0 | 0.00 | 0.00 | 0.00 | 75 | 1020.6 |
| 20260508141805 | 8 | 0 | 0.0 | 0.0 | 0.00 | 0.00 | 0.00 | 75 | 1020.6 |
| 20260508141206 | 8 | 0 | 0.0 | 0.0 | 0.00 | 0.00 | 0.00 | 75 | 1020.6 |
| 20260508140605 | 8 | 0 | 0.0 | 0.0 | 0.00 | 0.00 | 0.00 | 75 | 1020.5 |
| 20260508140006 | 8 | 0 | 0.0 | 0.0 | 0.00 | 0.00 | 0.00 | 74 | 1020.7 |
| 20260508135406 | 8 | 0 | 0.0 | 0.0 | 0.00 | 0.00 | 0.00 | 74 | 1020.6 |
| 20260508134805 | 9 | 0 | 0.0 | 0.0 | 0.00 | 0.00 | 0.00 | 74 | 1020.5 |
| 20260508133005 | 9 | 0 | 0.0 | 0.0 | 0.00 | 0.00 | 0.00 | 73 | 1020.5 |
| 20260508132406 | 9 | 0 | 0.0 | 0.0 | 0.00 | 0.00 | 0.00 | 73 | 1020.4 |
| 20260508131806 | 9 | 0 | 0.0 | 0.0 | 0.00 | 0.00 | 0.00 | 73 | 1020.4 |
| 20260508131206 | 9 | 0 | 0.0 | 0.0 | 0.00 | 0.00 | 0.00 | 73 | 1020.4 |
| 20260508130005 | 10 | 0 | 0.0 | 0.0 | 0.00 | 0.00 | 0.00 | 73 | 1020.4 |
| 20260508125406 | 10 | 0 | 0.0 | 0.0 | 0.00 | 0.00 | 0.00 | 73 | 1020.4 |
| 20260508124805 | 10 | 0 | 0.0 | 0.0 | 0.00 | 0.00 | 0.00 | 73 | 1020.4 |
| 20260508124205 | 10 | 0 | 0.0 | 0.0 | 0.00 | 0.00 | 0.00 | 72 | 1020.3 |
| 20260508123605 | 10 | 0 | 0.0 | 0.0 | 0.00 | 0.00 | 0.00 | 72 | 1020.3 |
| 20260508123005 | 10 | 0 | 0.0 | 0.0 | 0.00 | 0.00 | 0.00 | 72 | 1020.2 |
| 20260508122406 | 10 | 0 | 0.0 | 0.0 | 0.00 | 0.00 | 0.00 | 72 | 1020.3 |
| 20260508120605 | 10 | 0 | 0.0 | 0.0 | 0.00 | 0.00 | 0.00 | 71 | 1020.3 |
| 20260508120006 | 10 | 0 | 0.0 | 0.0 | 0.00 | 0.00 | 0.00 | 71 | 1020.4 |
| 20260508115406 | 10 | 0 | 0.0 | 0.0 | 0.00 | 0.00 | 0.00 | 70 | 1020.4 |
| 20260508114806 | 10 | 0 | 0.0 | 0.0 | 0.00 | 0.00 | 0.00 | 70 | 1020.4 |
| 20260508114205 | 10 | 0 | 0.0 | 0.0 | 0.00 | 0.00 | 0.00 | 70 | 1020.3 |
| 20260508113606 | 11 | 0 | 0.0 | 0.0 | 0.00 | 0.00 | 0.00 | 69 | 1020.3 |
| 20260508113006 | 11 | 0 | 0.0 | 0.0 | 0.00 | 0.00 | 0.00 | 69 | 1020.2 |
| 20260508112405 | 11 | 0 | 0.0 | 0.0 | 0.00 | 0.00 | 0.00 | 68 | 1020.1 |
| 20260508111805 | 11 | 0 | 0.0 | 0.0 | 0.00 | 0.00 | 0.00 | 67 | 1020.1 |
| 20260508111206 | 11 | 0 | 0.0 | 0.0 | 0.00 | 0.00 | 0.00 | 66 | 1020.1 |
| 20260508110606 | 11 | 0 | 0.0 | 0.0 | 0.00 | 0.00 | 0.00 | 65 | 1020.1 |
| 20260508110005 | 12 | 0 | 0.0 | 0.0 | 0.00 | 0.00 | 0.00 | 65 | 1020.0 |
| 20260508105406 | 12 | 0 | 0.0 | 0.0 | 0.00 | 0.00 | 0.00 | 64 | 1020.0 |
| 20260508104805 | 12 | 0 | 0.0 | 0.0 | 0.00 | 0.00 | 0.00 | 64 | 1019.9 |
| 20260508104205 | 12 | 0 | 0.0 | 0.0 | 0.00 | 0.00 | 0.00 | 63 | 1019.9 |
| 20260508103005 | 12 | 0 | 0.0 | 0.0 | 0.00 | 0.00 | 0.00 | 62 | 1019.7 |